TimeMDT,TemperatureF,Dew PointF,Humidity,Sea Level PressureIn,VisibilityMPH,Wind Direction,Wind SpeedMPH,Gust SpeedMPH,PrecipitationIn,Events,Conditions,WindDirDegrees,DateUTC
5:00 AM,41.0,41.0,100,29.87,15.0,NW,4.6,-,N/A,,Partly Cloudy,320,2012-09-01 11:00:00
6:00 AM,40,40,100,29.86,,NW,5.8,,,,,310,2012-09-01 12:00:00
6:00 AM,41.0,41.0,100,29.86,15.0,NW,6.9,-,N/A,,Scattered Clouds,320,2012-09-01 12:00:00
7:00 AM,42.8,41.0,93,29.86,7.0,WNW,4.6,-,N/A,,Scattered Clouds,300,2012-09-01 13:00:00
8:00 AM,41.0,41.0,100,29.89,10.0,West,4.6,-,N/A,,Scattered Clouds,270,2012-09-01 14:00:00
9:00 AM,50.0,48.2,94,29.88,12.0,NW,8.1,-,N/A,,Mostly Cloudy,310,2012-09-01 15:00:00
10:00 AM,53.6,46.4,77,29.88,15.0,NNW,6.9,-,N/A,,Mostly Cloudy,330,2012-09-01 16:00:00
11:00 AM,57.2,44.6,63,29.86,20.0,NNE,6.9,-,N/A,,Mostly Cloudy,20,2012-09-01 17:00:00
12:00 PM,60,46,50,29.86,,NNE,4.6,,,,,20,2012-09-01 18:00:00
12:00 PM,60.8,46.4,59,29.85,20.0,NNE,4.6,-,N/A,,Mostly Cloudy,30,2012-09-01 18:00:00
1:00 PM,60.8,46.4,59,29.85,25.0,NNW,4.6,-,N/A,,Mostly Cloudy,330,2012-09-01 19:00:00
1:08 PM,57.2,46.4,67,29.86,20.0,NW,6.9,-,N/A,Rain,Light Rain Showers,310,2012-09-01 19:08:00
1:36 PM,59.0,46.4,63,29.86,25.0,NW,8.1,-,N/A,,Mostly Cloudy,320,2012-09-01 19:36:00
2:00 PM,55.4,44.6,67,29.87,25.0,NNE,10.4,-,N/A,,Mostly Cloudy,20,2012-09-01 20:00:00
2:15 PM,53.6,44.6,72,29.87,20.0,ENE,5.8,-,N/A,Rain,Light Rain Showers,60,2012-09-01 20:15:00
2:37 PM,55.4,48.2,77,29.86,25.0,NNE,11.5,-,N/A,,Mostly Cloudy,30,2012-09-01 20:37:00
2:47 PM,53.6,44.6,72,29.87,30.0,NE,11.5,-,N/A,Rain,Light Rain Showers,40,2012-09-01 20:47:00
3:00 PM,53.6,46.4,77,29.87,30.0,NE,8.1,-,N/A,,Mostly Cloudy,50,2012-09-01 21:00:00
4:00 PM,55.4,46.4,72,29.88,30.0,East,4.6,-,N/A,,Mostly Cloudy,100,2012-09-01 22:00:00
5:00 PM,62.6,35.6,37,29.85,30.0,WNW,16.1,24.2,N/A,,Scattered Clouds,290,2012-09-01 23:00:00
6:00 PM,60,31,22,29.88,,WNW,20.7,,,,Partly Cloudy,290,2012-09-02 00:00:00
6:00 PM,60.8,32.0,34,29.88,30.0,West,19.6,27.6,N/A,,Scattered Clouds,280,2012-09-02 00:00:00
7:00 PM,60.8,37.4,42,29.88,30.0,West,8.1,-,N/A,,Mostly Cloudy,280,2012-09-02 01:00:00
8:00 PM,53.6,32.0,44,29.93,20.0,WNW,12.7,21.9,N/A,,Mostly Cloudy,290,2012-09-02 02:00:00
9:00 PM,48.2,33.8,58,29.93,15.0,West,9.2,-,N/A,,Mostly Cloudy,260,2012-09-02 03:00:00
10:00 PM,50.0,32.0,50,29.90,15.0,WNW,11.5,-,N/A,,Mostly Cloudy,290,2012-09-02 04:00:00